Regional Weather Roundup
Issued by NWS Charleston, SC

Current Version | Previous Version | Text Only | Print | Product List | Glossary Off
Versions: 1 2 3 4 5 6 7 8 9 10 11 12 13 14 15 16 17 18 19 20 21 22 23 24 25 26 27 28 29 30 31 32 33 34 35 36 37 38 39 40 41 42 43 44 45 46 47 48 49 50

000
ASUS42 KCHS 281628
RWRCHS

REGIONAL WEATHER ROUNDUP
NATIONAL WEATHER SERVICE CHARLESTON SC
1200 PM EDT SAT MAY 28 2016

NOTE: "FAIR" INDICATES FEW OR NO CLOUDS BELOW 12,000 FEET WITH NO
SIGNIFICANT WEATHER AND/OR OBSTRUCTIONS TO VISIBILITY.

NOT ALL STATIONS ARE QUALITY CONTROLLED. USE DATA WITH CAUTION...
ESPECIALLY DEWPOINT OBSERVATIONS.

SCZ027-030-031-034>040-042>050-281700-
...SOUTHEAST SOUTH CAROLINA...

CITY           SKY/WX    TMP DP  RH WIND       PRES   REMARKS
N CHARLESTON   LGT RAIN  78  69  73 NE7       30.12R
WATERFRONT PRK   N/A     77  72  84 NE10      30.09S
MOUNT PLEASANT DRIZZLE   75  72  88 NE5       30.12S
JOHNS ISLAND   DRIZZLE   75  73  94 NE8       30.12R
PINOPOLIS        N/A     81  72  74 NE7       30.05R
MONCKS CORNER  FAIR      79  63  57 NE9       30.12S
SUMMERVILLE    FAIR      81  70  69 NE6       30.14R
BEAUFORT MCAS  CLOUDY    79  69  71 NE9       30.12R
BEAUFORT ARPT  FAIR      77  68  73 NE10      30.11S
HILTON HEAD IS NOT AVBL
WALTERBORO     CLOUDY    81  68  65 NE5       30.14S
ALLENDALE      FAIR      81  68  65 VRB3      30.12F

...SOUTHERN MIDLANDS AND PEE DEE...

CITY           SKY/WX    TMP DP  RH WIND       PRES   REMARKS
GEORGETOWN     LGT RAIN  77  68  73 NE9G18    30.15R
KINGSTREE      FAIR      81  63  54 NE5       30.14S
ORANGEBURG     CLOUDY    81  67  62 E6        30.15R
BARNWELL       FAIR      82  72  69 CALM      30.14F
AIKEN          CLOUDY    77  64  65 E6        30.20R
MANNING        FAIR      79  68  69 E6        30.14S
COLUMBIA       CLOUDY    81  63  54 VRB3      30.15S
SUMTER         CLOUDY    81  67  63 E7        30.13S
FLORENCE       PTSUNNY   83  67  58 E12       30.16S
MYRTLE BEACH   PTSUNNY   81  64  57 E14       30.16S
N MYRTLE BEACH CLOUDY    80  68  66 E9        30.14R

$$

GAZ063-065-086>088-099>101-113>116-118-119-134>141-150-281700-
...SOUTHEAST GEORGIA...

CITY           SKY/WX    TMP DP  RH WIND       PRES   REMARKS
SAVANNAH ARPT  CLOUDY    78  69  73 NE8       30.12R
HUNTER AAF     CLOUDY    78  71  77 NE6       30.09S
FORT STEWART   CLOUDY    81  68  65 NE8       30.09S
STATESBORO     CLOUDY    82  72  70 E3        30.13S
SYLVANIA       CLOUDY    81  70  69 CALM      30.14S
CLAXTON        FAIR      82  69  64 N5        30.12F

...CSRA...CENTRAL AND FAR SOUTHEAST GEORGIA...

CITY           SKY/WX    TMP DP  RH WIND       PRES   REMARKS
THOMSON        MOSUNNY   83  64  53 SE3       30.20F
AUGUSTA-BUSH   CLOUDY    79  68  69 N3        30.15S
AUGUSTA-DANIEL CLOUDY    78  65  63 NE3       30.17S
SWAINSBORO     FAIR      81  64  57 NE3       30.14S
VIDALIA        PTSUNNY   81  66  61 N6        30.13S
EASTMAN        PTSUNNY   84  63  49 SE5       30.15F
HAZLEHURST     FAIR      84  64  50 CALM      30.12S
ALMA           MOSUNNY   84  67  56 VRB5      30.11F
WAYCROSS       PTSUNNY   84  66  54 N7        30.10S
JESUP          FAIR      79  64  61 NE9       30.10F
BAXLEY         FAIR      82  68  61 N5        30.11F
BRUNSWICK      MOSUNNY   82  70  65 NE13      30.09F
SAINT SIMONS   PTSUNNY   81  70  69 N15G23    30.08S

$$

SCZ027-028-034-036>038-045-046-048>050-GAZ119-141-281700-
...LAKE AND SUPPLEMENTAL COASTAL OBSERVATIONS...

STATION/POSITION TIME  TEMP    WIND        PRES    WAVE   SWELL
                       AIR SEA DIR/SP/G            HT/PER HT/PER/DIR
                 (UTC) (F)     (DEG/KT/KT) (MB)    (FT/S) (FT/S/D)
WINYAH BAY       1500   76      60/ 14     1020.0R
LAKE MURRAY      1500   75      CALM  /  4 1021.0R
ACE BASIN NERRS  1500   79      40/  3     1020.0R
FORT PULASKI     1600   76 77   10/  7/  9 1019.9R
SAPELO ISLAND    1600   81      30/ 13     1019.0S

$$

ANZ835-935-AMZ111-154-330-350-352-354-370-450-454-472-281700-
...C-MAN AND BUOY OBSERVATIONS...

STATION/POSITION TIME  TEMP    WIND        PRES    WAVE   SWELL
                       AIR SEA DIR/SP/G            HT/PER HT/PER/DIR
                 (UTC) (F)     (DEG/KT/KT) (MB)    (FT/S) (FT/S/D)
BUOY 41004       1550   75 76   10/ 16/ 17 1017.9F   6/10   5/10
BUOY 41008       1550   75 76   40/ 16/ 19 1018.4S   5/ 4   2/120/ 9
FOLLY BEACH CMAN 1600   76      50/ 16/ 18 1020.1R
CAPERS NEARSHORE 1608   75 76   50/ 16/ 21 1019.5R
FRIPP NEARSHORE  1608   76 76   60/ 16/ 21 1018.7R


STATION/POSITION TIME  TEMP    WIND        PRES    WAVE   SWELL
                       AIR SEA DIR/SP/G            HT/PER HT/PER/DIR
                 (UTC) (F)     (DEG/KT/KT) (MB)    (FT/S) (FT/S/D)
5E ST. MARYS GA  1601      78                N/A     4/ 8
FRYING PAN BUOY  1600   74 76   40/ 14/ 17 1019.6R
BUOY 41025       1550   77 78  100/ 12/ 16 1022.3R   5/ 9   3/130/ 9
CAPE LOOKOUT NC  1600   76      60/  9/  9 1021.7R
BUOY 41002       1550   75 77  110/ 19/ 21 1019.2F   3/ 7   2/120/ 7
BUOY 41010       1520   78 78  280/ 10/ 12 1015.6R
ST AUGUSTINE FL  1600   77 79   10/ 18/ 18 1018.7R


$$




USA.gov is the U.S. government's official web portal to all federal, state and local government web resources and services.